Weather History for Memphis, TN

Change the Weather History Date:

Friday, May 30, 2014

  Actual Average Record
Temperature  
Mean Temperature 78 °F 76 °F  
Max Temperature 85 °F 85 °F 99 °F (1977)
Min Temperature 71 °F 66 °F 48 °F (1889)
Degree Days  
Heating Degree Days 0 0  
Month to date heating degree days 49 17  
Since 1 July heating degree days 3484 2962  
Cooling Degree Days 13 11  
Month to date cooling degree days 242 215  
Year to date cooling degree days 298 310  
Growing Degree Days 28 (Base 50)    
Moisture  
Dew Point 68 °F    
Average Humidity 76    
Maximum Humidity 90    
Minimum Humidity 62    
Precipitation  
Precipitation 0.11 in 0.15 in 2.93 in (1883)
Month to date precipitation 4.28 5.10  
Year to date precipitation 25.92 24.13  
Snow  
Snow 0.00 in 0.00 in - ()
Month to date snowfall 0.0 0.0  
Since 1 July snowfall 0.8 3.8  
Snow Depth 0.00 in    
Sea Level Pressure  
Sea Level Pressure 29.98 in    
Wind  
Wind Speed 8 mph (ESE)    
Max Wind Speed 21 mph    
Max Gust Speed 26 mph    
Visibility 9 miles    
Events Rain , Thunderstorm    
T = Trace of Precipitation, MM = Missing Value Source: NWS Daily Summary

Daily Weather History Graph

Daily Weather History Graph

Search for Another Location

Airport:

Trip Planner

Search our weather history database for the weather conditions in past years. The results will help you decide how hot, cold, wet, or windy it might be!

Date:

Astronomy

May. 30, 2014 Rise Set
Actual Time 5:47 AM CDT 8:07 PM CDT
Civil Twilight 5:18 AM CDT 8:36 PM CDT
Nautical Twilight 4:42 AM CDT 9:12 PM CDT
Astronomical Twilight 4:03 AM CDT 9:51 PM CDT
Moon 7:29 AM CDT (5/30) 9:46 PM CDT (5/30)
Length of Visible Light 15h 18m
Length of Day
14h 19m
Waxing Crescent, 4% of the Moon is Illuminated
May 30
Waxing Crescent
Jun 5
First Quarter
Jun 12
Full
Jun 19
Last Quarter
Jun 27
New

Hourly Weather History & Observations

Time (CDT) Temp. Heat Index Dew Point Humidity Pressure Visibility Wind Dir Wind Speed Gust Speed Precip Events Conditions
12:54 AM 73.0 °F - 66.0 °F 79% 29.96 in 10.0 mi ESE 8.1 mph - N/A   Overcast
1:54 AM 73.0 °F - 66.0 °F 79% 29.95 in 10.0 mi ESE 8.1 mph - N/A   Overcast
2:54 AM 72.0 °F - 66.0 °F 81% 29.95 in 10.0 mi ESE 8.1 mph - N/A   Overcast
3:54 AM 71.6 °F - 66.2 °F 83% 29.95 in 10.0 mi ESE 8.1 mph - N/A   Overcast
4:54 AM 73.0 °F - 66.9 °F 81% 29.94 in 10.0 mi SE 8.1 mph - N/A   Overcast
5:54 AM 71.1 °F - 66.9 °F 87% 29.96 in 10.0 mi ESE 8.1 mph - N/A   Overcast
6:54 AM 72.0 °F - 66.9 °F 84% 29.97 in 10.0 mi ESE 10.4 mph - N/A   Overcast
7:54 AM 72.0 °F - 68.0 °F 87% 29.99 in 10.0 mi ESE 9.2 mph - 0.00 in Rain Light Rain
8:54 AM 73.0 °F - 68.0 °F 84% 30.00 in 10.0 mi East 8.1 mph - 0.00 in   Overcast
9:54 AM 75.9 °F - 68.0 °F 76% 30.00 in 10.0 mi ESE 10.4 mph - 0.01 in   Mostly Cloudy
10:54 AM 79.0 °F - 69.1 °F 72% 30.00 in 10.0 mi Variable 5.8 mph - N/A   Mostly Cloudy
11:54 AM 78.1 °F - 68.0 °F 71% 30.00 in 10.0 mi ESE 6.9 mph 17.3 mph N/A   Overcast
12:04 PM 78.8 °F - 69.8 °F 74% 30.01 in 10.0 mi East 5.8 mph - N/A   Mostly Cloudy
12:38 PM 80.6 °F 83.2 °F 68.0 °F 65% 30.01 in 10.0 mi SE 8.1 mph - 0.00 in Rain Light Rain
12:50 PM 80.6 °F 83.9 °F 69.8 °F 70% 30.01 in 10.0 mi Variable 4.6 mph - 0.00 in   Mostly Cloudy
12:54 PM 82.4 °F 85.4 °F 68.0 °F 62% 30.01 in 10.0 mi SE 6.9 mph - N/A   Mostly Cloudy
1:16 PM 80.6 °F 82.7 °F 66.2 °F 61% 30.00 in 10.0 mi ESE 9.2 mph - N/A   Mostly Cloudy
1:50 PM 78.8 °F - 68.0 °F 69% 29.99 in 2.0 mi ENE 19.6 mph - 0.00 in Rain Light Rain
1:54 PM 75.9 °F - 69.1 °F 79% 29.99 in 1.5 mi NE 12.7 mph - 0.00 in Rain Rain
2:00 PM 75.2 °F - 69.8 °F 83% 29.99 in 3.0 mi NE 10.4 mph - 0.01 in Rain Light Rain
2:19 PM 78.8 °F - 71.6 °F 78% 29.98 in 10.0 mi NE 4.6 mph - 0.01 in   Mostly Cloudy
2:54 PM 81.0 °F 85.2 °F 72.0 °F 74% 29.96 in 10.0 mi Variable 6.9 mph - 0.02 in   Mostly Cloudy
3:54 PM 80.6 °F 82.7 °F 66.2 °F 61% 29.96 in 10.0 mi East 10.4 mph - N/A   Mostly Cloudy
4:54 PM 78.8 °F - 69.8 °F 74% 29.97 in 10.0 mi SSW 9.2 mph 18.4 mph N/A Thunderstorm Thunderstorm
5:15 PM 77.0 °F - 69.8 °F 78% 29.98 in 3.0 mi ESE 13.8 mph 19.6 mph 0.00 in Rain , Thunderstorm Thunderstorms and Rain
5:26 PM 75.2 °F - 66.2 °F 73% 29.98 in 5.0 mi ESE 16.1 mph 25.3 mph 0.00 in Rain , Thunderstorm Light Thunderstorms and Rain
5:54 PM 73.0 °F - 68.0 °F 84% 29.96 in 8.0 mi ESE 9.2 mph 20.7 mph 0.01 in Rain , Thunderstorm Light Thunderstorms and Rain
6:18 PM 71.6 °F - 68.0 °F 88% 29.98 in 6.0 mi ESE 10.4 mph - 0.01 in Rain Light Rain
6:54 PM 72.0 °F - 68.0 °F 87% 29.98 in 10.0 mi ESE 6.9 mph - 0.07 in Rain Light Rain
7:54 PM 73.0 °F - 69.1 °F 87% 29.98 in 10.0 mi East 5.8 mph - 0.00 in   Mostly Cloudy
8:54 PM 73.0 °F - 69.1 °F 87% 29.98 in 10.0 mi ESE 4.6 mph - N/A   Mostly Cloudy
9:54 PM 73.0 °F - 69.1 °F 87% 29.99 in 10.0 mi East 5.8 mph - 0.00 in   Mostly Cloudy
10:54 PM 72.0 °F - 68.0 °F 87% 30.01 in 10.0 mi East 9.2 mph - N/A   Mostly Cloudy
11:54 PM 73.0 °F - 66.0 °F 79% 30.01 in 10.0 mi ESE 8.1 mph - N/A   Mostly Cloudy